Miscellaneous Local Product
Issued by NWS Hastings, NE

Home | Current Version | Previous Version | Text Only | Print | Product List | Glossary On
Versions: 1 2 3 4 5 6 7 8 9 10 11 12 13 14 15 16 17 18 19 20 21 22 23 24 25 26 27 28 29 30 31 32 33 34 35 36 37 38 39 40 41 42 43 44 45 46 47 48 49 50
000
AXUS43 KGID 011702
MISGRI

GID CWA HOURLY WEATHER ROUNDUP
NATIONAL WEATHER SERVICE HASTINGS NE
1100 AM CST SUN MAR 01 2015

NOTE: "FAIR" INDICATES FEW OR NO CLOUDS BELOW 12,000 FEET WITH NO
SIGNIFICANT WEATHER AND/OR OBSTRUCTIONS TO VISIBILITY.

...SOUTH CENTRAL NEBRASKA...

CITY           SKY/WX    TMP DP  RH WIND       PRES   REMARKS
GRAND ISLAND   SUNNY     30  15  53 N12       30.37R WCI  20
HASTINGS       SUNNY     31  14  49 N8        30.34R WCI  23
KEARNEY        SUNNY     30  12  47 N8        30.35R WCI  23
ORD            SUNNY     30  11  45 N9        30.35R WCI  22
YORK           SUNNY     28  18  64 N7        30.36R WCI  21
AURORA         SUNNY     29  16  59 NE8       30.36R WCI  21
LEXINGTON      SUNNY     30  14  50 NE5       30.34R WCI  25
HOLDREGE       SUNNY     29  15  55 NW6       30.34R WCI  23
HEBRON         SUNNY     28  19  67 CALM      30.38F

...NEBRASKA PANHANDLE...

CITY           SKY/WX    TMP DP  RH WIND       PRES   REMARKS
CHADRON        SUNNY     29  13  51 W10       30.31R WCI  20
ALLIANCE       CLOUDY    26  12  55 NW8       30.27R WCI  18
SCOTTSBLUFF    CLOUDY    27  13  55 VRB7      30.29R WCI  19
SIDNEY         MOSUNNY   25  16  68 N10       30.27R WCI  15

...WESTERN AND NORTH CENTRAL NEBRASKA...

CITY           SKY/WX    TMP DP  RH WIND       PRES   REMARKS
VALENTINE      CLOUDY    26  12  55 NW9       30.32S WCI  17
AINSWORTH      SUNNY     27  12  53 NW13      30.32S WCI  16
ONEILL         MOSUNNY   26  16  64 W8        30.35R WCI  18
BROKEN BOW     SUNNY     30  13  49 N8        30.33R WCI  22
IMPERIAL         N/A     30  13  49 N12       30.30R WCI  20
NORTH PLATTE   SUNNY     30   7  37 N5        30.33R WCI  25
MCCOOK         MOSUNNY   31  13  47 N7        30.33R WCI  24

...EASTERN NEBRASKA...

CITY           SKY/WX    TMP DP  RH WIND       PRES   REMARKS
NORFOLK        CLOUDY    29  12  49 N9        30.36R WCI  20
SO SIOUX CITY  CLOUDY    27  15  61 NW8       30.38S WCI  19
TEKAMAH        SUNNY     30  14  51 N13       30.39S WCI  20
COLUMBUS       SUNNY     30  10  43 N8        30.39R WCI  23
ALBION         CLOUDY    29  12  49 NW10      30.36R WCI  19
OMAHA EPPLEY   MOSUNNY   29  17  61 N5        30.39S WCI  24
OFFUTT AFB     SUNNY     28  17  62 VRB5      30.38S WCI  23
MILLARD        SUNNY     28  17  66 NW7       30.38S WCI  20
LINCOLN        MOSUNNY   29  18  63 N6        30.40R WCI  23
NEBRASKA CITY  MOSUNNY   28  16  61 W7        30.38S WCI  21
BEATRICE       PTSUNNY   27  20  73 W7        30.39R WCI  19
FALLS CITY     MOSUNNY   29  19  66 NW9       30.41R WCI  20

...NORTHERN KANSAS...

CITY           SKY/WX    TMP DP  RH WIND       PRES   REMARKS
GOODLAND       CLOUDY    25  16  68 N9        30.27R WCI  15
HILL CITY      MOSUNNY   28  18  66 N8        30.36R WCI  20
NORTON         PTSUNNY   28  16  59 CALM      30.33F
PHILLIPSBURG   MOSUNNY   32  19  59 NW7       30.37S WCI  26
SMITH CENTER   SUNNY     27  19  74 W5        30.39R WCI  21
BELOIT         SUNNY     28  19  69 W3        30.40S
HAYS           FAIR      27  14  59 N3        30.37R
RUSSELL        MOSUNNY   26  20  77 NW9       30.37R WCI  17
CONCORDIA      MOSUNNY   26  19  74 W7        30.39S WCI  18
SALINA         SUNNY     28  20  71 NW7       30.42S WCI  21
TOPEKA         MOSUNNY   29  18  63 W5        30.43R WCI  24



USA.gov is the U.S. government's official web portal to all federal, state and local government web resources and services.